Bismarck, ND

12:16 AM CST on February 20, 2018 (GMT -0600)
Bismarck Municipal

Weather History for KBIS - April, 2013

Change the Weather History Date:

Sunday, April 21, 2013

  Actual Average Record
Temperature  
Mean Temperature 34 °F 46 °F  
Max Temperature 39 °F 60 °F 93 °F (1980)
Min Temperature 28 °F 33 °F 18 °F (1936)
Degree Days  
Heating Degree Days 31 19  
Month to date heating degree days 704 486  
Since 1 July heating degree days 8320 8005  
Cooling Degree Days 0 0  
Month to date cooling degree days 0 0  
Year to date cooling degree days 0 0  
Moisture  
Dew Point 28 °F    
Average Humidity 82    
Maximum Humidity 100    
Minimum Humidity 64    
Precipitation  
Precipitation 0.07 in 0.04 in 1.44 in (1885)
Month to date precipitation 1.42 0.79  
Year to date precipitation 2.84 2.60  
Snow  
Snow 0.00 in 0.10 in 1.40 in (1924)
Month to date snowfall 21.5 3.5  
Since 1 July snowfall 57.0 50.1  
Snow Depth 5.00 in    
Sea Level Pressure  
Sea Level Pressure 30.05 in    
Wind  
Wind Speed 14 mph (West)    
Max Wind Speed 29 mph    
Max Gust Speed 38 mph    
Visibility 9 miles    
Events Rain    
T = Trace of Precipitation, MM = Missing Value Source: NWS Daily Summary

Daily Weather History Graph

Daily Weather History Graph

Search for Another Location

Airport or City:

Trip Planner

Search our weather history database for the weather conditions in past years. The results will help you decide how hot, cold, wet, or windy it might be!

Date:

Astronomy

Apr. 21, 2013 Rise Set
Actual Time 6:44 AM CDT 8:39 PM CDT
Civil Twilight 6:11 AM CDT 9:12 PM CDT
Nautical Twilight 5:31 AM CDT 9:52 PM CDT
Astronomical Twilight 4:48 AM CDT 10:36 PM CDT
Moon 4:12 PM CDT (4/21) 4:23 AM CDT (4/21)
Length of Visible Light 15h 00m
Length of Day
13h 55m
Waxing Gibbous, 80% of the Moon is Illuminated
Apr 21
Waxing Gibbous
Apr 25
Full
May 2
Last Quarter
May 9
New
May 17
First Quarter

Hourly Weather History & Observations

Time (CDT) Temp. Windchill Dew Point Humidity Pressure Visibility Wind Dir Wind Speed Gust Speed Precip Events Conditions
12:52 AM 32.0 °F 22.1 °F 28.0 °F 85% 30.03 in 10.0 mi South 13.8 mph - N/A   Overcast
1:52 AM 32.0 °F 23.0 °F 28.0 °F 85% 30.03 in 10.0 mi South 11.5 mph - N/A   Overcast
2:52 AM 30.9 °F 21.7 °F 28.9 °F 92% 30.00 in 10.0 mi South 11.5 mph - N/A   Overcast
3:52 AM 30.9 °F 23.5 °F 28.9 °F 92% 29.99 in 10.0 mi South 8.1 mph - 0.00 in   Overcast
4:52 AM 30.9 °F 23.5 °F 28.9 °F 92% 29.97 in 10.0 mi South 8.1 mph - 0.01 in   Overcast
5:05 AM 30.9 °F 23.5 °F 28.9 °F 92% 29.91 in 5.0 mi South 8.1 mph - 0.00 in Rain Light Freezing Rain
5:29 AM 30.9 °F 25.2 °F 30.0 °F 96% 29.90 in 3.0 mi South 5.8 mph - 0.06 in Rain Light Freezing Rain
5:45 AM 30.9 °F 25.2 °F 28.9 °F 92% 29.90 in 8.0 mi South 5.8 mph - 0.06 in   Overcast
5:52 AM 30.9 °F 26.2 °F 30.0 °F 96% 29.96 in 9.0 mi South 4.6 mph - 0.06 in   Overcast
6:03 AM 30.9 °F 26.2 °F 28.9 °F 92% 29.90 in 10.0 mi SSW 4.6 mph - N/A   Overcast
6:52 AM 32.0 °F 26.4 °F 28.9 °F 88% 29.96 in 10.0 mi SSW 5.8 mph - N/A   Overcast
7:27 AM 32.0 °F 26.4 °F 30.0 °F 92% 29.91 in 10.0 mi SW 5.8 mph - 0.00 in   Light Freezing Drizzle
7:44 AM 32.0 °F 26.4 °F 30.0 °F 92% 29.92 in 4.0 mi WSW 5.8 mph - 0.00 in   Overcast
7:52 AM 32.0 °F 26.4 °F 30.0 °F 92% 29.98 in 3.0 mi WSW 5.8 mph - 0.00 in   Overcast
8:11 AM 32.0 °F 26.4 °F 30.0 °F 92% 29.92 in 6.0 mi WSW 5.8 mph - N/A   Overcast
8:50 AM 33.8 °F 28.6 °F 30.2 °F 87% 29.93 in 8.0 mi West 5.8 mph - N/A   Overcast
8:52 AM 33.8 °F 28.6 °F 30.2 °F 87% 29.93 in 8.0 mi West 5.8 mph - N/A   Overcast
9:52 AM 37.0 °F 26.7 °F 33.1 °F 86% 30.01 in 10.0 mi NW 19.6 mph 31.1 mph N/A   Overcast
10:19 AM 37.0 °F 25.6 °F 30.9 °F 79% 29.97 in 10.0 mi NNW 24.2 mph 32.2 mph N/A   Overcast
10:49 AM 37.4 °F 28.2 °F 32.0 °F 81% 29.99 in 10.0 mi NNW 16.1 mph 27.6 mph N/A   Overcast
10:52 AM 37.0 °F 26.7 °F 32.0 °F 82% 30.05 in 10.0 mi NW 19.6 mph 27.6 mph N/A   Overcast
11:24 AM 37.0 °F 28.5 °F 28.9 °F 73% 30.01 in 10.0 mi NNW 13.8 mph 24.2 mph N/A   Overcast
11:52 AM 37.0 °F 27.0 °F 28.0 °F 70% 30.08 in 10.0 mi NNW 18.4 mph 29.9 mph N/A   Overcast
12:49 PM 39.2 °F 30.2 °F 28.4 °F 65% 30.05 in 10.0 mi NW 17.3 mph 31.1 mph N/A   Overcast
12:52 PM 39.0 °F 28.8 °F 28.9 °F 67% 30.10 in 10.0 mi NNW 21.9 mph 31.1 mph N/A   Overcast
1:52 PM 39.0 °F 29.0 °F 28.0 °F 65% 30.12 in 10.0 mi NW 20.7 mph 29.9 mph N/A   Overcast
2:52 PM 37.9 °F 27.1 °F 27.0 °F 65% 30.14 in 10.0 mi NW 23.0 mph 31.1 mph N/A   Overcast
3:52 PM 37.9 °F 28.2 °F 26.1 °F 62% 30.15 in 10.0 mi NW 18.4 mph 31.1 mph N/A   Scattered Clouds
4:52 PM 37.9 °F 28.2 °F 26.1 °F 62% 30.16 in 10.0 mi NNW 18.4 mph 27.6 mph N/A   Partly Cloudy
5:52 PM 37.9 °F 28.5 °F 26.1 °F 62% 30.19 in 10.0 mi NNW 17.3 mph 26.5 mph N/A   Clear
6:52 PM 37.0 °F 27.0 °F 26.1 °F 65% 30.20 in 10.0 mi NW 18.4 mph 25.3 mph N/A   Clear
7:52 PM 35.1 °F 25.5 °F 25.0 °F 67% 30.22 in 10.0 mi NW 15.0 mph - N/A   Clear
8:52 PM 34.0 °F 24.6 °F 25.0 °F 70% 30.23 in 10.0 mi NNW 13.8 mph - N/A   Partly Cloudy
9:52 PM 33.1 °F 24.4 °F 25.0 °F 72% 30.26 in 10.0 mi North 11.5 mph - N/A   Clear
10:52 PM 30.0 °F 20.5 °F 24.1 °F 79% 30.28 in 10.0 mi North 11.5 mph - N/A   Clear
11:52 PM 28.9 °F 19.8 °F 23.0 °F 78% 30.29 in 10.0 mi North 10.4 mph - N/A   Clear